This is the latest recevied weather packets stored in our database for station/object KO4ZGL-13. If no packets are shown the sender has not sent any weather packets the latest 10 day(s).
| Time | Temp. | Humidity | Pressure | Rain* | Wind** | Luminosity | Snow |
|---|---|---|---|---|---|---|---|
| 1778072809 | 23.33° C | 82% | 1016.9 hPa | 0 mm | - | 362 W/m² | - |
| 1778072506 | 22.22° C | 84% | 1017 hPa | 0 mm | - | 346 W/m² | - |
| 1778072204 | 22.22° C | 86% | 1017.2 hPa | 0 mm | - | 266 W/m² | - |
| 1778071901 | 21.67° C | 87% | 1016.9 hPa | 0 mm | - | 133 W/m² | - |
| 1778071599 | 21.11° C | 88% | 1016.9 hPa | 0 mm | - | 133 W/m² | - |
| 1778071297 | 20.56° C | 89% | 1016.6 hPa | 0 mm | - | 84 W/m² | - |
| 1778070994 | 20.56° C | 91% | 1017.1 hPa | 0 mm | - | 73 W/m² | - |
| 1778070693 | 20° C | 93% | 1016.7 hPa | 0 mm | - | 64 W/m² | - |
| 1778070389 | 19.44° C | 94% | 1016.7 hPa | 0 mm | - | 89 W/m² | - |
| 1778070087 | 18.89° C | 96% | 1016.6 hPa | 0 mm | - | 85 W/m² | - |
| 1778069784 | 18.33° C | 97% | 1016.5 hPa | 0 mm | - | 52 W/m² | - |
| 1778069481 | 17.78° C | 98% | 1016.5 hPa | 0 mm | - | 46 W/m² | - |
| 1778069179 | 17.22° C | 98% | 1016.6 hPa | 0 mm | - | 40 W/m² | - |
| 1778068876 | 16.67° C | 98% | 1016.6 hPa | 0 mm | - | 36 W/m² | - |
| 1778068574 | 16.67° C | 98% | 1016.4 hPa | 0 mm | - | 35 W/m² | - |
| 1778068272 | 16.11° C | 98% | 1016.7 hPa | 0 mm | - | 33 W/m² | - |
| 1778067969 | 15.56° C | 98% | 1016.5 hPa | 0 mm | - | 35 W/m² | - |
| 1778067667 | 15.56° C | 98% | 1016.4 hPa | 0 mm | - | 37 W/m² | - |
| 1778067365 | 15° C | 98% | 1016.6 hPa | 0 mm | - | 41 W/m² | - |
| 1778067062 | 14.44° C | 98% | 1016.4 hPa | 0 mm | - | 34 W/m² | - |
| 1778066758 | 13.89° C | 98% | 1016.4 hPa | 0 mm | - | 27 W/m² | - |
| 1778066456 | 13.89° C | 98% | 1016.5 hPa | 0 mm | - | 25 W/m² | - |
| 1778066154 | 13.89° C | 98% | 1016.3 hPa | 0 mm | - | 24 W/m² | - |
| 1778065851 | 13.89° C | 98% | 1016.2 hPa | 0 mm | - | 22 W/m² | - |
| 1778065548 | 13.89° C | 98% | 1015.9 hPa | 0 mm | - | 19 W/m² | - |
* Rain latest hour (hover to see other rain measurements)
** Current wind speed in m/s (hover to see current wind gust speed)